Weather History for KCEU - January, 2013

Change the Weather History Date:

Monday, January 28, 2013

  Actual Average (KTOC) Record (KTOC)
Temperature  
Mean Temperature 48 °F -  
Max Temperature 53 °F 53 °F - (-1)
Min Temperature 43 °F 31 °F - (-1)
Degree Days  
Heating Degree Days 17    
Moisture  
Dew Point 36 °F    
Average Humidity 66    
Maximum Humidity 83    
Minimum Humidity 53    
Precipitation  
Precipitation 0.00 in - - ()
Sea Level Pressure  
Sea Level Pressure 30.37 in    
Wind  
Wind Speed 2 mph (SW)    
Max Wind Speed 7 mph    
Max Gust Speed -    
Visibility 8 miles    
Events      
Averages and records for this station are not official NWS values.
T = Trace of Precipitation, MM = Missing Value Source: NWS Daily Summary

Daily Weather History Graph

Daily Weather History Graph

Search for Another Location

Airport or City:

Trip Planner

Search our weather history database for the weather conditions in past years. The results will help you decide how hot, cold, wet, or windy it might be!

Date:

Astronomy

Jan. 28, 2013 Rise Set
Actual Time 7:32 AM EST 5:57 PM EST
Civil Twilight 7:05 AM EST 6:23 PM EST
Nautical Twilight 6:35 AM EST 6:54 PM EST
Astronomical Twilight 6:05 AM EST 7:24 PM EST
Moon 7:43 PM EST (1/28) 8:03 AM EST (1/28)
Length of Visible Light 11h 18m
Length of Day
10h 24m
Full, 98% of the Moon is Illuminated
Jan 28
Full
Feb 3
Last Quarter
Feb 10
New
Feb 17
First Quarter
Feb 25
Full

Hourly Weather History & Observations

Time (EST) Temp. Windchill Dew Point Humidity Pressure Visibility Wind Dir Wind Speed Gust Speed Precip Events Conditions
12:54 AM 45.0 °F 43.5 °F 30.0 °F 56% 30.46 in 10.0 mi NNE 3.5 mph - N/A   Overcast
1:54 AM 44.1 °F - 28.9 °F 55% 30.45 in 10.0 mi Calm Calm - N/A   Scattered Clouds
2:54 AM 43.0 °F 40.3 °F 30.0 °F 60% 30.46 in 10.0 mi NNW 4.6 mph - N/A   Overcast
3:54 AM 44.1 °F - 30.9 °F 60% 30.44 in 10.0 mi Calm Calm - N/A   Overcast
4:54 AM 44.1 °F - 32.0 °F 63% 30.43 in 10.0 mi Calm Calm - N/A   Overcast
5:06 AM 44.6 °F - 32.0 °F 61% 30.43 in 10.0 mi Calm Calm - N/A   Overcast
5:54 AM 44.1 °F - 30.9 °F 60% 30.44 in 10.0 mi Calm Calm - N/A   Overcast
7:54 AM 44.1 °F - 30.9 °F 60% 30.44 in 10.0 mi Calm Calm - N/A   Overcast
8:54 AM 45.0 °F - 30.9 °F 58% 30.44 in 10.0 mi Calm Calm - N/A   Overcast
9:54 AM 45.0 °F - 30.0 °F 56% 30.44 in 10.0 mi Calm Calm - N/A   Overcast
10:50 AM 46.4 °F 45.2 °F 30.2 °F 53% 30.44 in 10.0 mi South 3.5 mph - N/A   Overcast
10:54 AM 46.0 °F 44.8 °F 30.9 °F 56% 30.45 in 10.0 mi South 3.5 mph - N/A   Overcast
12:54 PM 48.9 °F - 36.0 °F 61% 30.39 in 9.0 mi Calm Calm - N/A   Overcast
1:50 PM 50.0 °F - 35.6 °F 58% 30.35 in 10.0 mi East 3.5 mph - N/A   Overcast
1:54 PM 51.1 °F - 36.0 °F 56% 30.35 in 10.0 mi Calm Calm - N/A   Overcast
2:54 PM 52.0 °F - 37.9 °F 59% 30.32 in 8.0 mi Calm Calm - N/A   Overcast
3:10 PM 51.8 °F - 37.4 °F 58% 30.32 in 7.0 mi Calm Calm - N/A   Overcast
3:54 PM 53.1 °F - 39.9 °F 61% 30.32 in 7.0 mi Calm Calm - N/A   Overcast
4:26 PM 51.8 °F - 39.2 °F 62% 30.31 in 6.0 mi Calm Calm - N/A   Haze
4:54 PM 53.1 °F - 42.1 °F 66% 30.31 in 6.0 mi Calm Calm - N/A   Haze
5:54 PM 51.1 °F - 41.0 °F 68% 30.31 in 6.0 mi South 3.5 mph - N/A   Haze
6:54 PM 50.0 °F - 41.0 °F 71% 30.31 in 7.0 mi SSW 3.5 mph - N/A   Mostly Cloudy
7:04 PM 48.2 °F - 41.0 °F 76% 30.31 in 7.0 mi Calm Calm - N/A   Partly Cloudy
7:45 PM 48.2 °F - 42.8 °F 82% 30.31 in 6.0 mi Variable 3.5 mph - N/A   Haze
7:54 PM 48.0 °F - 42.1 °F 80% 30.31 in 5.0 mi Calm Calm - N/A   Haze
8:05 PM 48.2 °F - 42.8 °F 82% 30.31 in 5.0 mi Calm Calm - N/A   Haze
8:54 PM 48.0 °F - 42.1 °F 80% 30.30 in 4.0 mi Calm Calm - N/A   Haze
9:54 PM 46.9 °F - 42.1 °F 83% 30.31 in 3.0 mi WSW 3.5 mph - N/A   Haze
10:54 PM 46.9 °F - 42.1 °F 83% 30.29 in 4.0 mi WSW 6.9 mph - N/A   Haze
11:54 PM 46.9 °F - 42.1 °F 83% 30.28 in 4.0 mi WSW 5.8 mph - N/A   Haze